Regional Weather Roundup
Issued by NWS

Home | Current Version | Previous Version | Graphics & Text | Print | Product List | Glossary Off
Versions: 1 2 3 4 5 6 7 8 9 10 11 12 13 14 15 16 17 18 19 20 21 22 23 24 25 26 27 28 29 30 31 32 33 34 35 36 37 38 39 40 41 42 43 44 45 46 47 48 49 50

000
ASUS43 KMKX 050521
RWRWI

WISCONSIN REGIONAL WEATHER ROUNDUP
NATIONAL WEATHER SERVICE MILWAUKEE/SULLIVAN WI
1200 AM CDT SAT SEP 05 2015

NOTE: "FAIR" INDICATES FEW OR NO CLOUDS BELOW 12,000 FEET WITH NO
SIGNIFICANT WEATHER AND/OR OBSTRUCTIONS TO VISIBILITY.

WIZ001-002-006>008-014>016-023>028-050600-
NORTHWEST WISCONSIN

CITY           SKY/WX    TMP DP  RH WIND       PRES   REMARKS
SUPERIOR ARPT  PTCLDY    60  58  93 NE6       29.97S
ASHLAND        CLEAR     68  66  93 CALM      29.99F
HAYWARD        CLEAR     72  66  81 VRB5      30.01S
SIREN          PTCLDY    75  70  84 S9        29.96S
CUMBERLAND     MOCLDY    70  68  94 SE8       29.99S
RICE LAKE      PTCLDY    72  66  83 SE9       30.01S
CHETEK         CLEAR     71  68  89 SE5       30.01R
LADYSMITH      MOCLDY    70  66  89 E5        30.05R
EAU CLAIRE     PTCLDY    73  67  81 SE7       29.99S
MENOMONIE      PTCLDY    74  71  92 SE6       29.98F
NEW RICHMOND   PTCLDY    74  70  87 SE6       29.97S
OSCEOLA        PTCLDY    75  75  99 SE3       29.99R
$$

WIZ003>005-009-010-017-018-050600-
NORTH CENTRAL WISCONSIN

CITY           SKY/WX    TMP DP  RH WIND       PRES   REMARKS
MANITOWISH WTR CLEAR     67  67  99 S5        30.07R
ARBOR VITAE    CLEAR     69  67  93 S6        30.08R
WOODRUFF       CLEAR     69  67  93 S6        30.08R
RHINELANDER    CLEAR     66  64  93 SE3       30.09R
EAGLE RIVER    CLEAR     65  65 100 CALM      30.09R FOG
LAND O LAKES   CLEAR     65  64  97 CALM      30.10S
PHILLIPS       CLEAR     68  66  93 SE3       30.05S
TOMAHAWK       CLEAR     65  63  93 CALM      30.08R
MEDFORD        PTCLDY    67  66  97 SE3       30.06R
MERRILL        PTCLDY    66  66  99 SE3       30.08R
$$

WIZ029-030-035-036-043>047-050600-
CENTRAL WISCONSIN

CITY           SKY/WX    TMP DP  RH WIND       PRES   REMARKS
WAUSAU         CLEAR     68  65  90 E8        30.05S
MOSINEE        PTCLDY    64  64 100 SE3       30.07S FOG
MARSHFIELD     MOCLDY    69  63  81 SE6       30.06R
STEVENS POINT  CLEAR     65  64  99 E3        30.06S FOG
WAUPACA        CLEAR     67  67  99 CALM      30.06S FOG
WAUTOMA        PTCLDY    65  65 100 CALM      30.06S
WISC RAPIDS    PTCLDY    68  64  87 SE3       30.06S
CAMP DOUGLAS   CLEAR     68  68 100 E6        30.04R
$$

WIZ011>013-019>022-031-037>040-048>050-050600-
NORTHEAST WISCONSIN

CITY           SKY/WX    TMP DP  RH WIND       PRES   REMARKS
ANTIGO         PTCLDY    63  63 100 S5        30.10R FOG
SHAWANO        NOT AVBL
OCONTO         PTCLDY    61  61 100 CALM      30.06R
STURGEON BAY   PTCLDY    66  64  94 CALM      30.08S
GREEN BAY      PTCLDY    63  61  93 NE3       30.06S FOG
MANITOWOC      FOG       65  64  97 MISG      30.06F VSB 1/4
APPLETON       CLEAR     64  64 100 CALM      30.05S FOG
CLINTONVILLE   FOG       63  63 100 CALM      30.06S VSB 1/2
OSHKOSH        PTCLDY    66  63  90 CALM      30.05F
$$

WIZ032>034-041-042-053>061-050600-
SOUTHWEST WISCONSIN

CITY           SKY/WX    TMP DP  RH WIND       PRES   REMARKS
LA CROSSE      PTCLDY    77  72  84 SE8       29.98F
SPARTA         PTCLDY    71  67  85 E3        30.03R
VIROQUA        PTCLDY    73  73 100 SE7       30.04S
BOSCOBEL       PTCLDY    73  71  93 CALM      30.02R FOG
PRAIRIE DU CHI PTCLDY    73  70  90 CALM      30.01R
PLATTEVILLE    MOCLDY    76  73  90 E5        30.03R
$$

WIZ056-057-062-063-064-067-068-050600-
SOUTH CENTRAL WISCONSIN

CITY           SKY/WX    TMP DP  RH WIND       PRES   REMARKS
REEDSBURG      CLEAR     70  68  95 CALM      30.04S
BARABOO/DELLS  CLEAR     69  66  89 SE3       30.04S
LONE ROCK      PTCLDY    73  69  87 E6        30.03R
MINERAL POINT  MOCLDY    75  72  88 E6        30.05R
MADISON        CLEAR     69  65  86 SE7       30.05R
MIDDLETON      CLEAR     71  68  88 SE8       30.06R
WATERTOWN      PTCLDY    66  66 100 CALM      30.05F
MONROE         PTCLDY    70  68  94 E7        30.05S
JANESVILLE     CLEAR     68  66  94 E5        30.05R
$$

WIZ051-052-058>065-066-070>072-050600-
SOUTHEAST WISCONSIN

CITY           SKY/WX    TMP DP  RH WIND       PRES   REMARKS
MILWAUKEE      FOG       66  65  96 SE5       30.06S VSB 1/2
WAUKESHA       PTCLDY    63  63 100 SE5       30.08S FOG
MILWAUKEE/TIMM CLOUDY    64  61  88 CALM      30.07F FOG
RACINE         CLOUDY    69  65  86 S3        30.08S
BURLINGTON     CLOUDY    65  64  96 SE3       30.07R FOG
KENOSHA        MOCLDY    67  65  93 NE3       30.07S
FOND DU LAC    CLEAR     66  64  93 SE6       30.06F
SHEBOYGAN      FOG       64  64 100 SW5       30.07S VSB 1/4
WEST BEND      FOG       63  63 100 CALM      30.07S VSB 1/4
JUNEAU         PTCLDY    66  64  95 E3        30.07S FOG
$$

LSZ147-162-050600-
LAKE SUPERIOR

STATION/POSITION TIME  TEMP    WIND        PRES    WAVE
                       AIR SEA DIR/SP/G            HT/PER
                 (UTC) (F)     (DEG/KT/KT) (MB)    (FT/S)
W MID LAKE BUOY  0450   63 57  120/  8/ 10 1016.0R   1/ 4
DEVILS ISLAND    0500   66      30/  2/  3 1015.2R
PORT WING        0400   55     110/  1/  2 1015.2F
SAXON HARBOR     0400   71      CALM  /  4 1014.9
$$

LMZ867-665-643>646-050600-
LAKE MICHIGAN

STATION/POSITION TIME  TEMP    WIND        PRES    WAVE
                       AIR SEA DIR/SP/G            HT/PER
                 (UTC) (F)     (DEG/KT/KT) (MB)    (FT/S)
CHAMBERS ISLAND  0400   67     300/  4/  5 1017.9F
S GREEN BAY BUOY 0300   67 67   40/  4/  4 1019.4R
N MID LAKE BUOY  0450   68 67  110/  8/  8 1017.0F   1
NORTHPORT PIER   0400   68      CALM  /  1 1017.6F
SISTER BAY       0441   66     290/  5/  5   N/A
ALGOMA LAKESHORE 0414             CALM       N/A
KEWAUNEE LAKESHO 0500   65      CALM  /  2 1016.9F
SHEBOYGAN LAKESH 0500   63     250/  1/  1 1018.2F
PORT WASHINGTON  0400   61     130/  1/  2 1018.6S
ATWATER BUOY     0500   61 59  320/  2/  2 1019.5S
MILWAUKEE LAKESH 0510   64     120/  2/  2   N/A
S MID LAKE BUOY  0450   69 71   CALM  /  2 1017.6S
KENOSHA   LAKESH 0500   65     360/  2/  3 1017.9S
$$

TC  - TEMPERATURE IN CELSIUS
VSB - VISIBILITY IN STATUTE MILES
WCI - WIND CHILL INDEX
HX  - HEAT INDEX



USA.gov is the U.S. government's official web portal to all federal, state and local government web resources and services.